Weather History for Shannon, Ireland

Change the Weather History Date:

Thursday, April 11, 2013

  Actual Average Record
Temperature  
Mean Temperature 49 °F -  
Max Temperature 54 °F 57 °F 64 °F (2007)
Min Temperature 44 °F 42 °F 34 °F (2012)
Degree Days  
Heating Degree Days 16    
Moisture  
Dew Point 44 °F    
Average Humidity 89    
Maximum Humidity 100    
Minimum Humidity 66    
Precipitation  
Precipitation 0.08 in 0.08 in - ()
Sea Level Pressure  
Sea Level Pressure 29.28 in    
Wind  
Wind Speed 9 mph ()    
Max Wind Speed 14 mph    
Max Gust Speed -    
Visibility 6.4 miles    
Events Rain    
Averages and records for this station are not official NWS values.
T = Trace of Precipitation, MM = Missing Value Source: Averaged Metar Reports

Daily Weather History Graph

Daily Weather History Graph

Search for Another Location

Airport:

Trip Planner

Search our weather history database for the weather conditions in past years. The results will help you decide how hot, cold, wet, or windy it might be!

Date:

Astronomy

Apr. 11, 2013 Rise Set
Actual Time 6:46 AM IST 8:28 PM IST
Civil Twilight 6:10 AM IST 9:04 PM IST
Nautical Twilight 5:26 AM IST 9:48 PM IST
Astronomical Twilight 4:36 AM IST 10:39 PM IST
Moon 7:00 AM IST (4/11) 10:03 PM IST (4/11)
Length of Visible Light 14h 53m
Length of Day
13h 41m
New Moon, 1% of the Moon is Illuminated
Apr 11
New Moon
Apr 18
First Quarter
Apr 25
Full
May 2
Last Quarter
May 10
New

Hourly Weather History & Observations

Time (IST) Temp. Windchill Dew Point Humidity Pressure Visibility Wind Dir Wind Speed Gust Speed Precip Events Conditions
12:00 AM 46.4 °F 40.4 °F 44.6 °F 93% 29.39 in 5.6 mi ESE 13.8 mph - N/A Rain Light Rain
12:30 AM 46.4 °F 41.1 °F 44.6 °F 93% 29.36 in 5.6 mi East 11.5 mph - N/A Rain Light Rain
1:00 AM 46 °F - 44 °F 91% 29.36 in 6 mi East 13.4 mph - - Rain Light Rain
1:00 AM 46.4 °F 40.7 °F 44.6 °F 93% 29.36 in 5.6 mi East 12.7 mph - N/A Rain Light Rain
1:30 AM 46.4 °F 41.1 °F 44.6 °F 93% 29.36 in 6.2 mi ESE 11.5 mph - N/A Rain Light Rain
2:00 AM 46.4 °F 41.5 °F 44.6 °F 93% 29.33 in 3.7 mi ESE 10.4 mph - N/A Rain Light Rain
2:30 AM 46.4 °F 40.7 °F 44.6 °F 93% 29.33 in 6.2 mi ESE 12.7 mph - N/A Rain Light Rain
3:00 AM 46.4 °F 40.4 °F 44.6 °F 93% 29.33 in 6.2 mi ESE 13.8 mph - N/A Rain Light Rain
3:30 AM 44.6 °F 38.8 °F 44.6 °F 100% 29.33 in 6.2 mi SE 11.5 mph - N/A Rain Light Rain
4:00 AM 44.6 °F 38.1 °F 44.6 °F 100% 29.30 in 6.2 mi ESE 13.8 mph - N/A Rain Light Rain
4:30 AM 44.6 °F 39.2 °F 44.6 °F 100% 29.30 in 6.2 mi ESE 10.4 mph - N/A   Mostly Cloudy
5:00 AM 44.6 °F 39.2 °F 42.8 °F 93% 29.30 in 6.2 mi ESE 10.4 mph - N/A   Mostly Cloudy
5:30 AM 44.6 °F 40.2 °F 42.8 °F 93% 29.30 in 6.2 mi ESE 8.1 mph - N/A   Scattered Clouds
6:00 AM 44.6 °F 40.2 °F 42.8 °F 93% 29.30 in 6.2 mi ESE 8.1 mph - N/A   Mostly Cloudy
6:30 AM 44.6 °F 40.2 °F 42.8 °F 93% 29.30 in 6.2 mi ESE 8.1 mph - N/A   Mostly Cloudy
7:00 AM 45 °F - 44 °F 92% 29.30 in 16 mi East 11.2 mph - - Rain Light Rain Showers
7:00 AM 44.6 °F 39.2 °F 42.8 °F 93% 29.30 in 6.2 mi East 10.4 mph - N/A Rain Light Rain Showers
7:30 AM 44.6 °F 38.4 °F 42.8 °F 93% 29.30 in 6.2 mi ESE 12.7 mph - N/A   Mostly Cloudy
8:00 AM 44.6 °F 39.7 °F 42.8 °F 93% 29.27 in 6.2 mi East 9.2 mph - N/A   Partly Cloudy
8:30 AM 46.4 °F 41.9 °F 44.6 °F 93% 29.27 in 6.2 mi East 9.2 mph - N/A   Partly Cloudy
9:00 AM 48.2 °F - 44.6 °F 87% 29.27 in 6.2 mi ESE 8.1 mph - N/A   Scattered Clouds
9:30 AM 48.2 °F - 46.4 °F 93% 29.27 in 6.2 mi ESE 9.2 mph - N/A   Mostly Cloudy
10:00 AM 48.2 °F - 46.4 °F 93% 29.27 in 6.2 mi SE 9.2 mph - N/A   Mostly Cloudy
10:30 AM 50.0 °F - 46.4 °F 87% 29.27 in 6.2 mi SE 9.2 mph - N/A   Mostly Cloudy
11:00 AM 50.0 °F - 46.4 °F 87% 29.27 in 6.2 mi SE 10.4 mph - N/A   Mostly Cloudy
11:30 AM 50.0 °F - 44.6 °F 82% 29.27 in 6.2 mi SSE 10.4 mph - N/A Rain Light Rain Showers
12:00 PM 50.0 °F - 44.6 °F 82% 29.24 in 6.2 mi ESE 6.9 mph - N/A   Mostly Cloudy
12:30 PM 51.8 °F - 46.4 °F 82% 29.24 in 6.2 mi ESE 9.2 mph - N/A   Mostly Cloudy
1:00 PM 52 °F - 44 °F 66% 29.25 in 25 mi SE 11.2 mph - -   Partly Cloudy
1:00 PM 53.6 °F - 44.6 °F 72% 29.24 in 6.2 mi SE 11.5 mph - N/A   Mostly Cloudy
1:30 PM 53.6 °F - 44.6 °F 72% 29.24 in 6.2 mi ESE 10.4 mph - N/A   Mostly Cloudy
2:00 PM 51.8 °F - 44.6 °F 76% 29.24 in 6.2 mi ESE 10.4 mph - N/A Rain Light Rain Showers
2:30 PM 50.0 °F - 48.2 °F 94% 29.24 in 6.2 mi SSE 5.8 mph - N/A   Mostly Cloudy
3:00 PM 51.8 °F - 46.4 °F 82% 29.21 in 6.2 mi ESE 10.4 mph - N/A   Mostly Cloudy
3:30 PM 51.8 °F - 44.6 °F 76% 29.21 in 6.2 mi SE 6.9 mph - N/A   Scattered Clouds
4:00 PM 51.8 °F - 44.6 °F 76% 29.21 in 6.2 mi SE 8.1 mph - N/A   Scattered Clouds
4:30 PM 46.4 °F 41.5 °F 42.8 °F 87% 29.21 in 6.2 mi WSW 10.4 mph - N/A Rain Light Rain Showers
5:00 PM 48.2 °F - 42.8 °F 82% 29.21 in 6.2 mi NW 2.3 mph - N/A   Mostly Cloudy
5:30 PM 48.2 °F - 44.6 °F 87% 29.24 in 6.2 mi NNW 4.6 mph - N/A   Mostly Cloudy
6:00 PM 50.0 °F - 42.8 °F 76% 29.24 in 6.2 mi Calm Calm - N/A   Mostly Cloudy
6:30 PM 48.2 °F - 44.6 °F 87% 29.24 in 6.2 mi NNW 6.9 mph - N/A   Mostly Cloudy
7:00 PM 48 °F - 44 °F 82% 29.25 in 16 mi NNW 4.5 mph - - Rain Light Rain Showers
7:00 PM 48.2 °F - 44.6 °F 87% 29.24 in 6.2 mi NNW 4.6 mph - N/A   Mostly Cloudy
7:30 PM 46.4 °F 43.5 °F 44.6 °F 93% 29.24 in 3.1 mi West 5.8 mph - N/A Rain Light Rain Showers
8:00 PM 46.4 °F 45.2 °F 44.6 °F 93% 29.24 in 5.6 mi WNW 3.5 mph - N/A Rain Light Rain Showers
8:30 PM 46.4 °F 44.3 °F 44.6 °F 93% 29.27 in 6.2 mi WSW 4.6 mph - N/A   Scattered Clouds
9:00 PM 46.4 °F 45.2 °F 44.6 °F 93% 29.27 in 6.2 mi West 3.5 mph - N/A   Mostly Cloudy
9:30 PM 44.6 °F 43.1 °F 42.8 °F 93% 29.27 in 6.2 mi NW 3.5 mph - N/A   Mostly Cloudy
10:00 PM 44.6 °F 41.4 °F 42.8 °F 93% 29.27 in 6.2 mi NW 5.8 mph - N/A   Scattered Clouds
10:30 PM 44.6 °F 41.4 °F 42.8 °F 93% 29.30 in 6.2 mi WNW 5.8 mph - N/A   Mostly Cloudy
11:00 PM 44.6 °F 40.2 °F 42.8 °F 93% 29.30 in 6.2 mi WNW 8.1 mph - N/A   Mostly Cloudy
11:30 PM 44.6 °F 41.4 °F 42.8 °F 93% 29.30 in 6.2 mi WNW 5.8 mph - N/A   Mostly Cloudy